Tracking 17559 objects as of 13-February-2016
HD Live streaming from Space Station
objects crossing your sky now

ATLAS CENTAUR R/B

Track ATLAS CENTAUR R/B now!


NORAD ID: 10976
Int'l Code: 1978-068B
Perigee: 615.4 km
Apogee: 36,239.5 km
Inclination: 21.9 °
Period: 647.7 minutes
Semi major axis: 24798 km
RCS: 16.8333 m2 (large)
Launch date: June 29, 1978
Source: United States (US)
Launch site: AIR FORCE EASTERN TEST RANGE (AFETR)

Note: This is a ROCKET BODY
Your satellite tracking list
Your tracking list is empty





NASA's NSSDC Master Catalog

Two Line Element Set (TLE):
1 10976U 78068B   16042.59796765 -.00000147  00000-0  58689-3 0  9991
2 10976  21.9153  12.2264 7182714 316.8898 189.1565  2.2231358035319
Source of the keplerian elements: AFSPC

N2YO: 332